#timestamp,LO_Frequency,Hit,StdDev 
1690344015.1,286047000.8,N
1690344035.8,286046995.5,N
1690344055.7,286046995.0,N
1690344075.5,286046994.9,N
1690344095.4,286046999.1,N
1690344115.2,286046994.0,N
1690344135.0,286046993.8,N
1690344135.9,286046993.8,N
1690344155.8,286046998.9,N
1690344175.6,286047004.0,N
1690344195.5,286047002.7,N
1690344215.3,286047002.8,N
1690344235.1,286047002.4,N
1690344255.9,286046998.9,N
1690344275.7,286047000.5,N
1690344295.5,286046999.3,N
1690344315.4,286046996.7,N
1690344335.2,286047001.1,N
1690344355.0,286046996.6,N
1690344356.0,286046996.6,N
1690344375.8,286046999.4,N
1690344395.6,286046997.7,N
1690344415.5,286046999.6,N
1690344435.3,286046997.4,N
1690344455.1,286046997.8,N
1690344475.9,286046997.5,N
1690344495.7,286046996.0,N
1690344515.5,286046994.9,N
1690344535.4,286046999.4,N
1690344555.2,286047000.5,N
1690344575.1,286047001.8,N
1690344576.0,286047001.8,N
1690344595.8,286047002.9,N
1690344615.6,286047001.7,N
1690344635.5,286047004.3,N
1690344655.3,286047001.7,N
1690344675.1,286047003.4,N
1690344695.9,286047011.9,Y
1690344715.7,286047011.7,P
1690344735.6,286047015.3,N
1690344755.4,286047015.2,N
1690344775.2,286047014.0,N
1690344795.1,286047013.2,N
1690344796.0,286047013.2,N
1690344815.8,286047009.4,N
1690344835.7,286047011.3,N
1690344855.5,286047016.7,Y
1690344875.3,286047007.6,P
1690344895.2,286047007.2,P
1690344915.0,286047005.2,N
1690344915.9,286047005.2,N
1690344935.8,286047005.7,N
1690344955.6,286047005.7,N
1690344975.4,286047001.7,N
1690344995.3,286046999.7,N
1690345015.1,286047000.8,N
1690345035.8,286047000.0,N
1690345055.7,286046997.0,N
1690345075.5,286046998.1,N
1690345095.4,286046999.5,N
1690345115.2,286046998.8,N
1690345135.0,286046998.6,N
1690345135.9,286046998.6,N
1690345155.8,286046994.9,N
1690345175.6,286046993.4,N
1690345195.4,286046994.3,N
1690345215.3,286046997.6,N
1690345235.1,286046995.2,N
1690345255.9,286047001.1,N
1690345275.7,286047003.4,N
1690345295.5,286047003.9,N
1690345315.4,286047008.8,N
1690345335.2,286047006.6,N
1690345355.1,286047007.6,N
1690345356.0,286047007.6,N
1690345375.8,286047006.0,N
1690345395.6,286047001.8,N
1690345415.5,286047004.4,N
1690345435.3,286047000.2,N
1690345455.2,286047000.8,N
1690345475.9,286047001.1,N
1690345495.7,286047003.8,N
1690345515.6,286047006.0,N
1690345535.4,286047007.5,N
1690345555.2,286047009.0,N
1690345575.1,286047015.5,Y
1690345576.0,286047015.5,P
1690345595.8,286047015.5,N
1690345615.7,286047011.4,N
1690345635.5,286047011.6,N
1690345655.4,286047011.4,N
1690345675.2,286047010.7,N
1690345695.0,286047007.9,N
1690345695.9,286047007.9,N
1690345715.8,286047010.5,N
1690345735.6,286047012.3,Y
1690345755.5,286047006.0,P
1690345775.3,286047004.0,N
1690345795.2,286047003.8,N
1690345815.9,286047007.0,N
1690345835.7,286047006.0,N
1690345855.6,286047002.6,N
1690345875.4,286046999.9,N
1690345895.2,286047002.6,N
1690345915.1,286047001.7,N
1690345916.0,286047001.7,N
1690345935.8,286047003.3,N
1690345955.7,286047005.7,N
1690345975.5,286047006.9,N
1690345995.3,286047008.4,Y
1690346015.2,286047004.0,P
1690346035.0,286047001.4,P
1690346035.9,286047001.4,N
1690346055.7,286047006.0,Y
1690346075.6,286047000.2,P
1690346095.4,286047005.9,P
1690346115.3,286047010.5,P
1690346135.1,286047013.5,Y
1690346155.8,286047012.2,P
1690346175.8,286047012.3,P
1690346195.6,286047010.8,P
1690346215.4,286047007.8,N
1690346235.3,286047014.0,Y
1690346255.1,286047004.8,P
1690346275.8,286047011.8,P
1690346295.7,286047005.1,N
1690346315.5,286047001.2,N
1690346335.4,286046997.8,N
1690346355.2,286046993.5,N
1690346375.0,286046994.3,N
1690346375.9,286046994.3,N
1690346395.8,286046990.1,N
1690346415.6,286046992.4,N
1690346435.4,286046992.6,N
1690346455.3,286046989.0,N
1690346475.1,286046991.6,N
1690346495.9,286046989.6,N
1690346515.7,286046989.2,N
1690346535.5,286046989.3,N
1690346555.4,286046987.4,N
1690346575.2,286046986.4,N
1690346595.0,286046982.2,N
1690346595.9,286046982.2,N
1690346615.8,286046988.0,N
1690346635.6,286046988.3,N
1690346655.5,286046987.0,N
1690346675.3,286046988.5,N
1690346695.1,286046987.8,N
1690346715.9,286046985.8,N
1690346735.7,286046983.4,N
1690346755.5,286046980.3,N
1690346775.4,286046980.6,N
1690346795.2,286046983.5,N
1690346815.0,286046982.9,N
1690346816.0,286046982.9,N
1690346835.8,286046981.4,Y
1690346855.6,286046991.5,P
1690346875.5,286046991.9,P
1690346895.3,286046993.6,P
1690346915.1,286046994.3,Y
1690346935.9,286047002.2,P
1690346955.7,286047006.8,N
1690346975.6,286047004.8,N
1690346995.4,286047003.1,N
1690347015.2,286047005.8,N
1690347035.1,286047003.7,N
1690347036.0,286047003.7,N
1690347055.8,286047004.4,N
1690347075.6,286047002.1,N
1690347095.5,286046998.2,N
1690347115.3,286046996.5,N
1690347135.1,286046996.6,N
1690347155.9,286046996.7,N
1690347175.7,286047001.1,N
1690347195.6,286047000.5,N
1690347215.4,286046999.2,N
1690347235.2,286047000.5,N
1690347255.1,286047000.8,N
1690347256.0,286047000.8,N
1690347275.8,286046999.5,N
1690347295.7,286046997.4,N
1690347315.5,286046997.6,N
1690347335.3,286046994.7,N
1690347355.2,286046996.4,N
1690347375.9,286046993.4,N
1690347395.7,286046990.2,N
1690347415.6,286046994.6,N
1690347435.4,286046997.0,N
1690347455.3,286046996.6,N
1690347475.1,286047001.2,N
1690347476.0,286047001.2,N
1690347495.8,286046999.4,N
1690347515.7,286046998.2,N
1690347535.5,286047000.1,N
1690347555.3,286047002.3,N
1690347575.2,286046996.9,N
1690347595.0,286046995.3,N
1690347595.9,286046995.3,N
